DW5914 Weather Reports


Display with metric or nautical units.
time (UTC)temp
F
wind
direction
speed
MPH
gust
MPH
rain 1hr
in
rain 24hr
in
rain mn
in
humidity
%
barometer
mb
20260831050037 58 159 2.0 5.0 0.00 0.00 0.00 85 1019.6
20260831044549 58 173 2.0 5.0 0.00 0.00 0.00 84 1019.7
20260831043036 58 159 2.0 5.0 0.00 0.00 0.00 84 1019.8
20260831041542 59 159 1.0 4.0 0.00 0.00 0.00 82 1019.9
20260831040035 59 160 2.0 5.0 0.00 0.00 0.00 81 1019.8
20260831034535 59 171 1.0 4.0 0.00 0.00 0.00 79 1019.8
20260831033040 60 175 2.0 5.0 0.00 0.00 0.00 77 1019.7
20260831031536 60 172 2.0 4.0 0.00 0.00 0.00 76 1019.7
20260831030033 61 167 1.0 3.0 0.00 0.00 0.00 75 1019.6
20260831024533 61 182 2.0 3.0 0.00 0.00 0.00 75 1019.7
20260831023032 62 184 1.0 3.0 0.00 0.00 0.00 74 1019.7
20260831021543 62 184 0.0 2.0 0.00 0.00 0.00 74 1019.8
20260831020031 62 185 0.0 2.0 0.00 0.00 0.00 75 1019.9
20260831014530 63 185 0.0 3.0 0.00 0.00 0.00 73 1019.9
20260831013029 63 185 0.0 4.0 0.00 0.00 0.00 73 1020.0
20260831011540 63 209 0.0 0.0 0.00 0.00 0.00 72 1020.2
20260831010026 63 210 0.0 3.0 0.00 0.00 0.00 71 1020.2
20260831004526 64 178 0.0 2.0 0.00 0.00 0.00 71 1020.2
20260831003024 64 190 1.0 3.0 0.00 0.00 0.00 71 1020.4
20260831001534 63 221 1.0 4.0 0.00 0.00 0.00 72 1020.5
20260831000022 64 184 1.0 4.0 0.00 0.00 0.00 71 1020.6
20260830234526 64 207 1.0 4.0 0.00 0.00 0.00 70 1020.7
20260830233021 64 171 2.0 3.0 0.00 0.00 0.00 70 1020.7
20260830231520 65 211 1.0 6.0 0.00 0.00 0.00 69 1020.8
20260830230021 65 173 2.0 5.0 0.00 0.00 0.00 67 1020.8
20260830224520 65 180 2.0 6.0 0.00 0.00 0.00 69 1020.8
20260830223022 65 236 2.0 8.0 0.00 0.00 0.00 68 1020.9
20260830221518 67 267 3.0 10.0 0.00 0.00 0.00 66 1021.0
20260830220018 68 240 2.0 8.0 0.00 0.00 0.00 66 1021.1
20260830214515 68 170 3.0 8.0 0.00 0.00 0.00 66 1021.3
20260830213014 67 299 1.0 6.0 0.00 0.00 0.00 67 1021.3
20260830211509 66 257 3.0 7.0 0.00 0.00 0.00 69 1021.3
20260830210006 65 53 2.0 8.0 0.00 0.00 0.00 70 1021.4
20260830204510 64 156 1.0 7.0 0.00 0.00 0.00 72 1021.4
20260830203100 63 308 3.0 6.0 0.00 0.00 0.00 74 1021.5
20260830201600 63 161 1.0 5.0 0.00 0.00 0.00 75 1021.5
20260830200059 63 355 2.0 6.0 0.00 0.00 0.00 74 1021.6
20260830194606 63 217 1.0 7.0 0.00 0.00 0.00 75 1021.6
20260830193055 63 275 3.0 9.0 0.00 0.00 0.00 77 1021.6
20260830191552 62 187 2.0 8.0 0.00 0.00 0.00 79 1021.8
20260830190048 61 215 2.0 7.0 0.00 0.00 0.00 80 1021.9
20260830184546 60 220 3.0 7.0 0.00 0.00 0.00 81 1022.1
20260830183046 60 168 2.0 5.0 0.00 0.00 0.00 82 1022.2
20260830181542 59 256 1.0 7.0 0.00 0.00 0.00 83 1022.2
20260830180040 59 161 1.0 8.0 0.00 0.00 0.00 84 1022.1
20260830174552 58 150 2.0 7.0 0.00 0.00 0.00 85 1022.2
20260830173036 58 205 2.0 8.0 0.00 0.00 0.00 85 1022.0
20260830171536 58 205 2.0 7.0 0.00 0.00 0.00 86 1021.9
20260830170032 57 104 3.0 10.0 0.00 0.00 0.00 86 1021.9
20260830164531 57 145 2.0 9.0 0.00 0.00 0.00 86 1022.0
20260830163040 57 204 3.0 8.0 0.00 0.00 0.00 86 1022.0
20260830161529 57 280 1.0 10.0 0.00 0.00 0.00 87 1021.9
20260830160027 57 197 3.0 9.0 0.00 0.00 0.00 88 1021.9
20260830154527 56 139 2.0 8.0 0.00 0.00 0.00 89 1021.8
20260830153032 56 197 3.0 9.0 0.00 0.00 0.00 90 1021.9
20260830151534 56 221 1.0 6.0 0.00 0.00 0.00 91 1021.9
20260830150021 55 237 2.0 6.0 0.00 0.00 0.00 92 1021.8
20260830144520 55 223 2.0 8.0 0.00 0.00 0.00 92 1021.7
20260830143020 55 205 1.0 3.0 0.00 0.00 0.00 93 1021.6
20260830141517 55 215 2.0 4.0 0.00 0.00 0.00 93 1021.5
20260830140016 54 180 0.0 7.0 0.00 0.00 0.00 93 1021.5
20260830134518 54 97 2.0 4.0 0.00 0.00 0.00 93 1021.5
20260830133021 54 149 0.0 5.0 0.00 0.00 0.00 93 1021.4
20260830131514 53 212 0.0 6.0 0.00 0.00 0.00 93 1021.4
20260830130012 53 171 1.0 3.0 0.00 0.00 0.00 93 1021.4
20260830124516 53 166 1.0 6.0 0.00 0.00 0.00 93 1021.4
20260830123011 53 165 0.0 3.0 0.00 0.00 0.00 92 1021.4
20260830121511 53 157 1.0 5.0 0.00 0.00 0.00 92 1021.3
20260830120009 53 161 0.0 4.0 0.00 0.01 0.00 92 1021.4
20260830114508 53 188 1.0 4.0 0.00 0.01 0.00 92 1021.3
20260830113008 53 163 0.0 4.0 0.00 0.01 0.00 91 1021.3
20260830111509 53 161 2.0 5.0 0.00 0.01 0.00 91 1021.2
20260830110005 54 171 0.0 4.0 0.00 0.04 0.00 90 1021.2
20260830104509 54 217 2.0 6.0 0.00 0.04 0.00 90 1021.0
20260830103001 54 148 1.0 5.0 0.00 0.04 0.00 90 1020.9
20260830101501 54 170 2.0 6.0 0.00 0.04 0.00 90 1020.9
20260830100100 54 182 4.0 7.0 0.00 0.04 0.00 90 1020.8
20260830094628 54 180 2.0 5.0 0.00 0.04 0.00 90 1020.8
20260830093103 54 207 1.0 5.0 0.00 0.04 0.00 91 1020.8
20260830091600 53 132 0.0 3.0 0.00 0.04 0.00 91 1020.9
20260830084556 54 175 1.0 6.0 0.00 0.04 0.00 90 1020.9
20260830083059 54 176 1.0 5.0 0.00 0.04 0.00 89 1020.8
20260830081559 54 149 2.0 6.0 0.00 0.04 0.00 89 1020.8
20260830080055 54 185 1.0 5.0 0.00 0.04 0.00 88 1020.8
20260830074555 54 173 1.0 5.0 0.00 0.06 0.00 89 1020.7
20260830073051 54 202 2.0 5.0 0.00 0.06 0.00 88 1020.7
20260830071601 54 165 3.0 5.0 0.00 0.06 0.00 87 1020.6
20260830070046 55 140 3.0 7.0 0.00 0.06 0.00 87 1020.6
20260830064547 54 152 3.0 7.0 0.00 0.20 0.06 87 1020.6
20260830063044 55 165 4.0 6.0 0.00 0.20 0.06 87 1020.5
20260830061546 55 166 3.0 5.0 0.00 0.20 0.06 86 1020.4
20260830060042 55 179 1.0 7.0 0.00 0.20 0.06 86 1020.2
20260830054542 55 169 3.0 7.0 0.00 0.27 0.06 85 1020.1
20260830053041 55 171 3.0 11.0 0.00 0.27 0.06 85 1020.2
20260830051546 55 140 2.0 8.0 0.00 0.27 0.06 84 1020.3